OpenBCM V1.13 (Linux)

Packet Radio Mailbox

DB0FHN

[JN59NK Nuernberg]

 Login: GUEST





  
CX2SA  > KEPS     31.07.26 02:42l 312 Lines 14847 Bytes #999 (0) @ AMSAT
BID : ORB26205.1
Read: OE5RCO DJ6UX GUEST
Subj: 2Line Orbital Elements 26205.AMSAT
Path: DB0FHN<OE2XZR<OE6XPE<DB0RKB<DK0WUE<HB9ON<HB9ON<PI8ZTM<CX2SA
Sent: 260731/0024Z @:CX2SA.SAL.URY.SOAM #:2458 [Salto] FBB7.00e $:ORB26205.1
From: CX2SA@CX2SA.SAL.URY.SOAM
To  : KEPS@AMSAT


QST de W1STR

AMSAT Orbital Elements for Amateur Satellites in TLE Format
>From Orbital Analysis Office
New England Sci-Tech STEM Education Center
Natick MA July 24, 2026
To all radio amateurs


These element sets describe the orbits of various satellites
in use by the amateur radio community. For details see:
www.amsat.org/keplerian-elements-formats/

A daily update of element sets is available at:
www.amsat.org/tle/daily-bulletin.txt
or without bulletin text:
www.amsat.org/tle/dailytle.txt


AO-07
1 07530U 74089B   26204.28001248 -.00000040  00000-0  41374-4 0  9990
2 07530 101.9909 217.9030 0012610  63.4131 306.8461 12.53698643365049
UO-11
1 14781U 84021B   26204.86794922  .00001312  00000-0  13880-3 0  9997
2 14781  97.8083 170.0403 0009067  67.3159 292.9016 14.90866325262593
LO-19
1 20442U 90005G   26204.53133676  .00000085  00000-0  47158-4 0  9996
2 20442  98.8846 227.3370 0012691  99.0495 261.2125 14.34132489907606
AO-27
1 22825U 93061C   26204.15037507  .00000058  00000-0  39247-4 0  9992
2 22825  98.6861 271.5473 0008293   3.0265 357.0967 14.30950552712142
FO-29
1 24278U 96046B   26204.83380159 -.00000041  00000-0 -49726-5 0  9999
2 24278  98.5215  48.6823 0349930   1.5416 358.6721 13.53275818478128
GO-32
1 25397U 98043D   26204.45017931  .00000045  00000-0  39520-4 0  9996
2 25397  99.0092 198.1273 0002334 101.8892 258.2548 14.24434535456496
ISS
1 25544U 98067A   26204.83049110  .00009620  00000-0  18169-3 0  9995
2 25544  51.6314 118.7564 0006921 330.4598  29.5998 15.49124476577435
NO-44
1 26931U 01043C   26204.54861199  .00000111  00000-0  72290-4 0  9993
2 26931  67.0505 150.2240 0005843 267.3711  92.6722 14.31967517295656
SO-50
1 27607U 02058C   26204.09590113  .00000878  00000-0  12088-3 0  9994
2 27607  64.5523  17.8775 0074286 255.8289 103.4556 14.83110516269786
CO-55
1 27844U 03031E   26204.00389230  .00000238  00000-0  12202-3 0  9994
2 27844  98.6747 212.1136 0010851  82.6312 277.6100 14.24355144196777
RS-22
1 27939U 03042A   26204.89463601  .00000980  00000-0  15896-3 0  9999
2 27939  98.3486  30.2936 0011869 146.4464 344.2325 14.73525519220950
CO-65
1 32785U 08021C   26204.90351631  .00005526  00000-0  34633-3 0  9998
2 32785  97.8297 187.0993 0006984 262.5532  97.4902 15.09759353990734
CO-66
1 32791U 08021J   26204.41936485  .00018972  00000-0  58050-3 0  9995
2 32791  97.7535 204.0815 0003921 140.5450 219.6077 15.33884906992845
RS-30
1 32953U 08025A   26204.79647097  .00000076  00000-0  47311-3 0  9992
2 32953  82.5067 332.6677 0018855 229.2639 130.6805 12.43181266824243
SRMSAT
1 37841U 11058D   26204.33651531  .00000363  00000-0  53261-4 0  9992
2 37841  19.9701 200.6646 0011561 241.2167 146.8753 14.11582322762933
ZACUBE-1
1 39417U 13066B   26204.33245205  .00003415  00000-0  26445-3 0  9995
2 39417  97.7990 166.8439 0044074 129.2358 231.2791 15.01362379686151
Delfi-N3xt
1 39428U 13066N   26204.71615593  .00007427  00000-0  63912-3 0  9997
2 39428  97.8308 124.9973 0075807  85.2778 275.7094 14.95437666680089
GOMX-1
1 39430U 13066Q   26204.81846378  .00001129  00000-0  17591-3 0  9993
2 39430  97.6472  42.9702 0127527 320.4109  38.7837 14.69557069675290
LO-74
1 39440U 13066AA  26204.83512302  .00002521  00000-0  23515-3 0  9993
2 39440  97.8914 153.9789 0055500 265.9774  93.5100 14.94009532682468
AO-73
1 39444U 13066AE  26204.51050627  .00007621  00000-0  46628-3 0  9995
2 39444  97.8300 176.7303 0038149  80.8155 279.7386 15.09909897685145
DTUSAT-2
1 40030U 14033W   26204.42653659  .00006961  00000-0  37178-3 0  9993
2 40030  98.0884 204.4689 0009637 108.4474 251.7805 15.15429714658176
LILACSAT-2
1 40908U 15049K   26204.89320387  .00021214  00000-0  34572-3 0  9998
2 40908  97.4631 243.1525 0008639 116.2559 243.9583 15.52609279601445
Lapan A3
1 41603U 16040E   26204.86989434  .00003581  00000-0  11348-3 0  9997
2 41603  97.1510 199.8193 0008492 237.5813 122.4609 15.33319162560437
CAS-2T
1 41847U 16066G   26204.46154537  .00000639  00000-0  98274-4 0  9994
2 41847  98.3807 279.7826 0341786  19.7084 341.6950 14.44780560510036
TechnoSat
1 42829U 17042E   26204.88212731  .00002345  00000-0  16838-3 0  9998
2 42829  97.4322   1.1570 0016569 334.0267  26.0126 15.05144347492220
AO-91
1 43017U 17073E   26204.51789103  .00008409  00000-0  36402-3 0  9990
2 43017  97.4662  70.9927 0148677 202.5578 156.9074 15.13146521470885
S-Net D
1 43186U 18014G   26204.61267444  .00005127  00000-0  26297-3 0  9998
2 43186  97.5321 109.1769 0006320 247.5771 112.4793 15.16974247464285
S-Net B
1 43187U 18014H   26204.69081169  .00005015  00000-0  25750-3 0  9994
2 43187  97.5326 109.2421 0007001 241.9587 118.0939 15.16943909464293
S-Net A
1 43188U 18014J   26204.61135223  .00005098  00000-0  26142-3 0  9995
2 43188  97.5336 109.3789 0006876 243.0030 117.0501 15.16982496464285
S-Net C
1 43189U 18014K   26204.62892419  .00004827  00000-0  24802-3 0  9994
2 43189  97.5354 109.4768 0008354 235.1028 124.9420 15.16933819462837
Ten-Koh
1 43677U 18084G   26204.47334499  .00001885  00000-0  14468-3 0  9993
2 43677  98.0772  38.3658 0009408   7.0574 353.0780 15.03076228421613
PO-101
1 43678U 18084H   26204.84631426  .00002173  00000-0  17702-3 0  9990
2 43678  98.1225  42.6621 0012280  57.4722 302.7685 15.00587913421713
QO-100
1 43700U 18090A   26204.54610483  .00000000  00000-0  00000+0 0  9996
2 43700   0.0186  49.6880 0002702 107.0586   6.9459  1.00273645 28049
MinXSS-2
1 43758U 18099A   26204.67565163  .00041165  00000-0  74966-3 0  9999
2 43758  97.4515 282.0919 0008834 133.8681 226.3302 15.49336731419772
AO-95
1 43770U 18099N   26204.11741777  .00012936  00000-0  48430-3 0  9990
2 43770  97.4362 264.2441 0007956 208.6564 151.4239 15.27399464418700
SNUSat 2
1 43782U 18099AA  26204.55646549  .00008880  00000-0  38734-3 0  9991
2 43782  97.4039 257.3887 0011042 159.8357 200.3318 15.22338749418569
SnugLite
1 43784U 18099AC  26204.43411382  .00012422  00000-0  45849-3 0  9997
2 43784  97.3848 258.3705 0004261 139.3580 220.7978 15.27896131418853
ITASat 1
1 43786U 18099AE  26204.57572126  .00006444  00000-0  30659-3 0  9998
2 43786  97.4011 255.3665 0011442 217.9737 142.0692 15.19457884418438
EAGLET 1
1 43790U 18099AJ  26204.55818264  .00004086  00000-0  23368-3 0  9996
2 43790  97.4211 253.2643 0010230 212.0464 148.0146 15.13178894417833
ESEO
1 43792U 18099AL  26204.10012466  .00001324  00000-0  99050-4 0  9993
2 43792  97.3964 239.9493 0011309 202.4336 157.6398 15.04344786417203
JO-97
1 43803U 18099AX  26204.42449412  .00017809  00000-0  53040-3 0  9999
2 43803  97.4109 267.4075 0007346 133.9181 226.2670 15.34728198419183
Suomi 100
1 43804U 18099AY  26204.72852427  .00013014  00000-0  46096-3 0  9994
2 43804  97.4168 265.0008 0011213 144.6584 215.5402 15.29190534419009
ISAT
1 43879U 18111D   26204.77327529  .00134970  00000-0  99192-3 0  9996
2 43879  97.5838 143.0089 0008677 126.5974 233.6088 15.72645486416908
UWE-4
1 43880U 18111E   26204.75570760  .00034567  00000-0  65482-3 0  9999
2 43880  97.5823 134.8907 0007599 164.6158 195.5324 15.48253700416434
Sparrow
1 43881U 18111F   26204.58615191  .00387810  57585-4  13524-2 0  9994
2 43881  97.6070 149.2649 0009405 138.7768 221.4215 15.89243345417124
Prox-1
1 44339U 19036A   26204.32963281  .00012282  00000-0  11719-2 0  9996
2 44339  23.9936 232.6674 0006473  96.1539 263.9698 14.91375944378873
Taurus 1
1 44530U 19059C   26204.87445627  .00006139  00000-0  97596-3 0  9995
2 44530  98.6448  11.9943 0008679 187.6874 172.4200 14.72436320364040
TO-108
1 44881U 19093C   26204.86403712  .00000192  00000-0  27741-4 0  9999
2 44881  97.7512 276.1992 0012832 332.4044  27.6490 14.86567508356866
RS-44
1 44909U 19096E   26204.59358229  .00000007  00000-0 -22705-4 0  9996
2 44909  82.5245 315.5155 0218350  59.4462 302.7988 12.79748902307004
SALSAT
1 46495U 20068K   26204.44213958  .00007378  00000-0  25456-3 0  9994
2 46495  97.8868 209.7289 0010091 164.5021 195.6529 15.30258663320903
CSS (TIANHE-1)
1 48274U 21035A   26204.73936068  .00010440  00000-0  13794-3 0  9998
2 48274  41.4707 100.0404 0002755 309.6784  50.3810 15.58301417298871
CUTE
1 49263U 21088D   26197.83813593  .08921004  25505-5  41832-3 0  9995
2 49263  97.3907 300.4441 0014216 277.7997  82.1689 16.41647044267308
TeikyoSat 4
1 49396U 21102B   26204.11406893  .00001403  00000-0  90902-4 0  9995
2 49396  97.3662 232.2007 0012484 161.6749 198.4933 15.09618180258141
Z-Sat
1 49399U 21102E   26204.83909042  .00004966  00000-0  24287-3 0  9990
2 49399  97.3316 239.0513 0018226 116.9999 243.3099 15.18514045259001
KOSEN 1
1 49402U 21102H   26204.57447226  .00007699  00000-0  28958-3 0  9992
2 49402  97.3173 246.0315 0015314  81.4670 278.8304 15.27306037259576
HO-113
1 50466U 21131B   26204.84636036  .00000484  00000-0  16308-3 0  9996
2 50466  98.4979 297.0386 0004030   7.3516 352.7731 14.41387583240393
SNUGLITE 2
1 52899U 22065F   26204.86036632  .00000858  00000-0  17141-3 0  9994
2 52899  98.2247 349.6360 0006145 267.8566  92.1933 14.64405981216361
UmKA 1 (RS40S)
1 57172U 23091G   26204.86904929  .00005444  00000-0  24686-3 0  9994
2 57172  97.5032 263.4297 0012147 359.8400   0.2829 15.21192425169589
CubeBel-2 (EU11S)
1 57175U 23091K   26204.81836699  .00012498  00000-0  43255-3 0  9990
2 57175  97.5032 268.3797 0008637 355.7066   4.4098 15.29982624169909
RS-38S
1 57189U 23091Z   26204.81101319  .00016585  00000-0  45865-3 0  9999
2 57189  97.5073 275.0548 0005163 301.3378  58.7360 15.37085049170317
SONATE-2
1 59112U 24043Q   26204.37832557  .00047130  00000-0  55216-3 0  9992
2 59112  97.5560 357.0780 0006369  79.1760 281.0214 15.61378243133539
